WHT280F LPSO-LPHR

Flight info

Callsign WHT280F
Flight time 2h 33m
Altitude 24000
Route ESP UM744 BUSEN UZ21 GUNTI/M078F380 T25 LENSI DCT BAVAS/M073F280 H121 LM/M071F270 H123 SOLGI
Aircraft A320/M-SDE3FGHIRWY/LB1

Departure

Time 2026-05-09 00:58
Airport Aeródromo Municipal de Ponte de Sor (LPSO)

Arrival

Time 2026-05-09 03:31
Airport Horta Airport (LPHR)
Time Latitude Longitude Altitude Speed Heading
2026-05-09 00:27 39.20634 -8.05769 402 ft 0 kts 27°
2026-05-09 00:50 39.20634 -8.05770 400 ft 0 kts 27°
2026-05-09 00:54 39.20634 -8.05769 397 ft 0 kts 27°
2026-05-09 00:54 39.20651 -8.05763 401 ft 8 kts 14°
2026-05-09 00:54 39.20731 -8.05793 400 ft 17 kts 352°
2026-05-09 00:55 39.20862 -8.05719 395 ft 24 kts 24°
2026-05-09 00:55 39.21033 -8.05618 400 ft 28 kts 25°
2026-05-09 00:55 39.21202 -8.05524 398 ft 26 kts 24°
2026-05-09 00:55 39.21384 -8.05419 397 ft 31 kts 24°
2026-05-09 00:56 39.21595 -8.05297 394 ft 34 kts 25°
2026-05-09 00:56 39.21785 -8.05259 400 ft 25 kts 357°
2026-05-09 00:56 39.21925 -8.05307 397 ft 16 kts 280°
2026-05-09 00:56 39.21893 -8.05349 399 ft 0 kts 204°
2026-05-09 00:57 39.21889 -8.05351 399 ft 4 kts 204°
2026-05-09 00:58 39.21608 -8.05511 397 ft 96 kts 204°
2026-05-09 00:58 39.20726 -8.06019 467 ft 171 kts 201°
2026-05-09 00:58 39.19566 -8.06686 1278 ft 198 kts 200°
2026-05-09 00:58 39.18229 -8.07458 2107 ft 220 kts 204°
2026-05-09 00:59 39.16890 -8.08546 3070 ft 235 kts 210°
2026-05-09 00:59 39.15489 -8.09758 4038 ft 249 kts 210°
2026-05-09 00:59 39.14032 -8.11032 5077 ft 257 kts 211°
2026-05-09 00:59 39.12590 -8.12311 6395 ft 246 kts 211°
2026-05-09 01:00 39.11190 -8.13547 7621 ft 244 kts 211°
2026-05-09 01:00 39.09723 -8.14719 8605 ft 251 kts 207°
2026-05-09 01:00 39.08188 -8.15833 9636 ft 256 kts 206°
2026-05-09 01:00 39.06609 -8.16984 10345 ft 272 kts 209°
2026-05-09 01:01 39.05030 -8.18534 10734 ft 299 kts 221°
2026-05-09 01:01 39.03634 -8.20620 11376 ft 312 kts 227°
2026-05-09 01:01 39.02253 -8.22842 12207 ft 317 kts 228°
2026-05-09 01:01 39.00878 -8.25082 13093 ft 320 kts 228°
2026-05-09 01:02 38.99495 -8.27343 13963 ft 323 kts 228°
2026-05-09 01:02 38.98095 -8.29627 14751 ft 326 kts 228°
2026-05-09 01:02 38.96693 -8.31910 15524 ft 328 kts 228°
2026-05-09 01:02 38.95272 -8.34219 16300 ft 330 kts 228°
2026-05-09 01:03 38.93836 -8.36539 17058 ft 333 kts 228°
2026-05-09 01:03 38.92384 -8.38886 17860 ft 336 kts 228°
2026-05-09 01:03 38.90928 -8.41240 18589 ft 339 kts 228°
2026-05-09 01:03 38.89452 -8.43615 19290 ft 342 kts 228°
2026-05-09 01:04 38.87960 -8.46009 20004 ft 345 kts 228°
2026-05-09 01:04 38.86449 -8.48434 20699 ft 349 kts 228°
2026-05-09 01:04 38.84929 -8.50876 21379 ft 352 kts 228°
2026-05-09 01:04 38.83397 -8.53345 22039 ft 356 kts 228°
2026-05-09 01:05 38.81851 -8.55840 22691 ft 359 kts 228°
2026-05-09 01:05 38.80288 -8.58354 23332 ft 362 kts 228°
2026-05-09 01:05 38.77113 -8.63446 24395 ft 368 kts 227°
2026-05-09 01:06 38.75505 -8.66020 24916 ft 371 kts 227°
2026-05-09 01:06 38.73887 -8.68610 25424 ft 373 kts 227°
2026-05-09 01:06 38.72259 -8.71211 25924 ft 376 kts 227°
2026-05-09 01:06 38.70616 -8.73831 26410 ft 379 kts 227°
2026-05-09 01:07 38.68961 -8.76468 26888 ft 381 kts 227°
2026-05-09 01:07 38.67295 -8.79126 27360 ft 384 kts 227°
2026-05-09 01:07 38.66162 -8.80932 27685 ft 386 kts 227°
2026-05-09 01:07 38.64474 -8.83623 28150 ft 389 kts 227°
2026-05-09 01:08 38.62771 -8.86332 28600 ft 392 kts 227°
2026-05-09 01:08 38.61055 -8.89058 29048 ft 395 kts 227°
2026-05-09 01:08 38.59324 -8.91806 29483 ft 398 kts 227°
2026-05-09 01:08 38.57583 -8.94569 29890 ft 401 kts 228°
2026-05-09 01:09 38.55829 -8.97352 30252 ft 403 kts 228°
2026-05-09 01:09 38.54063 -9.00150 30612 ft 406 kts 228°
2026-05-09 01:09 38.52284 -9.02970 30964 ft 408 kts 228°
2026-05-09 01:09 38.50504 -9.05790 31388 ft 408 kts 228°
2026-05-09 01:10 38.48726 -9.08602 31891 ft 406 kts 228°
2026-05-09 01:10 38.46952 -9.11407 32394 ft 405 kts 228°
2026-05-09 01:10 38.45296 -9.14316 32899 ft 407 kts 236°
2026-05-09 01:10 38.44102 -9.17606 33402 ft 412 kts 247°
2026-05-09 01:11 38.43462 -9.21187 33885 ft 419 kts 258°
2026-05-09 01:11 38.43435 -9.24930 34300 ft 428 kts 270°
2026-05-09 01:11 38.43952 -9.28698 34648 ft 434 kts 275°
2026-05-09 01:12 38.45105 -9.36246 34767 ft 431 kts 275°
2026-05-09 01:12 38.46232 -9.43755 34764 ft 431 kts 275°
2026-05-09 01:13 38.47354 -9.51269 34755 ft 431 kts 275°
2026-05-09 01:13 38.48469 -9.58808 34759 ft 438 kts 275°
2026-05-09 01:14 38.49604 -9.66586 34758 ft 451 kts 275°
2026-05-09 01:14 38.50765 -9.74496 34749 ft 453 kts 275°
2026-05-09 01:15 38.51936 -9.82403 34747 ft 454 kts 275°
2026-05-09 01:15 38.53102 -9.90337 34739 ft 455 kts 275°
2026-05-09 01:16 38.54251 -9.98278 34744 ft 455 kts 275°
2026-05-09 01:16 38.55291 -10.06251 34746 ft 455 kts 274°
2026-05-09 01:17 38.56580 -10.18319 34747 ft 455 kts 273°
2026-05-09 01:17 38.57431 -10.26329 34746 ft 456 kts 273°
2026-05-09 01:18 38.58316 -10.34352 34748 ft 456 kts 274°
2026-05-09 01:18 38.58845 -10.39100 34745 ft 456 kts 274°
2026-05-09 01:19 38.59230 -10.42591 34743 ft 456 kts 274°
2026-05-09 01:20 38.60113 -10.50631 34742 ft 456 kts 274°
2026-05-09 01:20 38.60986 -10.58723 34739 ft 457 kts 274°
2026-05-09 01:21 38.61840 -10.66722 34739 ft 457 kts 274°
2026-05-09 01:21 38.62710 -10.74827 34733 ft 457 kts 274°
2026-05-09 01:22 38.63569 -10.82887 34730 ft 457 kts 274°
2026-05-09 01:22 38.64416 -10.90944 34732 ft 457 kts 274°
2026-05-09 01:23 38.65253 -10.99005 34724 ft 457 kts 274°
2026-05-09 01:23 38.66088 -11.07071 34723 ft 457 kts 274°
2026-05-09 01:24 38.66924 -11.15144 34722 ft 458 kts 274°
2026-05-09 01:24 38.67757 -11.23215 34720 ft 458 kts 274°
2026-05-09 01:25 38.68581 -11.31291 34716 ft 458 kts 274°
2026-05-09 01:25 38.69396 -11.39374 34712 ft 458 kts 274°
2026-05-09 01:26 38.70204 -11.47450 34707 ft 458 kts 274°
2026-05-09 01:26 38.71010 -11.55529 34708 ft 458 kts 274°
2026-05-09 01:27 38.71807 -11.63620 34711 ft 458 kts 274°
2026-05-09 01:27 38.72602 -11.71707 34701 ft 458 kts 274°
2026-05-09 01:28 38.73387 -11.79796 34697 ft 458 kts 274°
2026-05-09 01:28 38.74170 -11.87897 34694 ft 458 kts 274°
2026-05-09 01:29 38.74944 -11.95991 34693 ft 458 kts 274°
2026-05-09 01:29 38.75723 -12.04082 34694 ft 458 kts 275°
2026-05-09 01:30 38.76488 -12.12185 34691 ft 458 kts 274°
2026-05-09 01:30 38.77249 -12.20286 34687 ft 458 kts 275°
2026-05-09 01:31 38.78007 -12.28380 34686 ft 458 kts 275°
2026-05-09 01:31 38.78759 -12.36476 34684 ft 458 kts 275°
2026-05-09 01:32 38.79503 -12.44636 34682 ft 458 kts 275°
2026-05-09 01:32 38.80239 -12.52738 34677 ft 458 kts 275°
2026-05-09 01:33 38.80974 -12.60846 34673 ft 458 kts 275°
2026-05-09 01:33 38.81701 -12.68951 34674 ft 457 kts 275°
2026-05-09 01:34 38.82423 -12.77053 34671 ft 457 kts 275°
2026-05-09 01:34 38.83138 -12.85152 34667 ft 457 kts 275°
2026-05-09 01:35 38.83848 -12.93247 34669 ft 457 kts 275°
2026-05-09 01:35 38.84544 -13.01340 34661 ft 456 kts 275°
2026-05-09 01:36 38.85241 -13.09434 34662 ft 456 kts 275°
2026-05-09 01:36 38.85938 -13.17525 34656 ft 456 kts 275°
2026-05-09 01:37 38.86629 -13.25608 34657 ft 456 kts 275°
2026-05-09 01:37 38.87305 -13.33701 34652 ft 456 kts 275°
2026-05-09 01:38 38.87972 -13.41788 34649 ft 456 kts 275°
2026-05-09 01:38 38.88531 -13.48557 34649 ft 455 kts 275°
2026-05-09 01:39 38.89189 -13.56638 34646 ft 455 kts 275°
2026-05-09 01:39 38.89848 -13.64718 34640 ft 455 kts 275°
2026-05-09 01:40 38.90509 -13.72802 34642 ft 455 kts 275°
2026-05-09 01:40 38.91154 -13.80874 34641 ft 455 kts 275°
2026-05-09 01:41 38.91791 -13.88946 34638 ft 454 kts 275°
2026-05-09 01:41 38.92421 -13.97023 34635 ft 454 kts 275°
2026-05-09 01:42 38.93051 -14.05094 34633 ft 454 kts 275°
2026-05-09 01:42 38.93675 -14.13201 34632 ft 453 kts 275°
2026-05-09 01:43 38.94290 -14.21260 34627 ft 453 kts 275°
2026-05-09 01:43 38.94897 -14.29328 34630 ft 453 kts 275°
2026-05-09 01:44 38.95504 -14.37381 34627 ft 453 kts 275°
2026-05-09 01:44 38.96101 -14.45436 34624 ft 453 kts 275°
2026-05-09 01:45 38.96690 -14.53491 34621 ft 452 kts 275°
2026-05-09 01:45 38.97280 -14.61548 34620 ft 452 kts 275°
2026-05-09 01:46 38.97860 -14.69592 34615 ft 451 kts 275°
2026-05-09 01:46 38.98431 -14.77624 34614 ft 451 kts 275°
2026-05-09 01:47 38.99001 -14.85657 34784 ft 451 kts 275°
2026-05-09 01:47 38.99286 -14.89663 35124 ft 450 kts 275°
2026-05-09 01:47 38.99556 -14.93539 35414 ft 450 kts 275°
2026-05-09 01:48 38.99833 -14.97544 35697 ft 450 kts 275°
2026-05-09 01:48 39.00081 -15.01560 35966 ft 450 kts 273°
2026-05-09 01:48 39.00238 -15.05530 36224 ft 450 kts 272°
2026-05-09 01:48 39.00326 -15.09599 36467 ft 450 kts 271°
2026-05-09 01:49 39.00371 -15.13631 36568 ft 451 kts 270°
2026-05-09 01:49 39.00404 -15.17663 36583 ft 451 kts 270°
2026-05-09 01:49 39.00499 -15.25722 36581 ft 451 kts 271°
2026-05-09 01:50 39.00651 -15.33787 36579 ft 450 kts 271°
2026-05-09 01:50 39.00815 -15.41841 36581 ft 450 kts 271°
2026-05-09 01:51 39.00966 -15.49890 36583 ft 450 kts 271°
2026-05-09 01:51 39.01104 -15.57942 36590 ft 451 kts 271°
2026-05-09 01:52 39.01231 -15.66007 36595 ft 451 kts 271°
2026-05-09 01:52 39.01353 -15.74066 36603 ft 450 kts 271°
2026-05-09 01:53 39.01470 -15.82110 36607 ft 450 kts 271°
2026-05-09 01:53 39.01576 -15.90175 36615 ft 450 kts 271°
2026-05-09 01:54 39.01683 -15.98221 36619 ft 449 kts 271°
2026-05-09 01:54 39.01787 -16.06210 36621 ft 449 kts 271°
2026-05-09 01:55 39.01881 -16.14226 36628 ft 448 kts 271°
2026-05-09 01:55 39.01976 -16.22295 36635 ft 448 kts 271°
2026-05-09 01:56 39.02063 -16.30307 36638 ft 448 kts 271°
2026-05-09 01:56 39.02144 -16.38315 36637 ft 448 kts 271°
2026-05-09 01:57 39.02222 -16.46335 36644 ft 448 kts 271°
2026-05-09 01:57 39.02277 -16.54340 36645 ft 448 kts 271°
2026-05-09 01:58 39.02334 -16.62350 36647 ft 448 kts 271°
2026-05-09 01:58 39.02400 -16.70359 36649 ft 448 kts 271°
2026-05-09 01:59 39.02453 -16.78374 36652 ft 448 kts 271°
2026-05-09 01:59 39.02501 -16.86380 36660 ft 448 kts 271°
2026-05-09 02:00 39.02536 -16.94402 36665 ft 448 kts 271°
2026-05-09 02:00 39.02567 -17.02413 36670 ft 448 kts 271°
2026-05-09 02:01 39.02595 -17.10425 36677 ft 448 kts 271°
2026-05-09 02:01 39.02616 -17.18443 36680 ft 448 kts 271°
2026-05-09 02:02 39.02642 -17.26445 36684 ft 447 kts 271°
2026-05-09 02:02 39.02659 -17.34449 36689 ft 447 kts 271°
2026-05-09 02:03 39.02669 -17.42398 36694 ft 447 kts 271°
2026-05-09 02:03 39.02676 -17.50393 36696 ft 447 kts 271°
2026-05-09 02:04 39.02673 -17.58388 36700 ft 447 kts 271°
2026-05-09 02:04 39.02664 -17.66427 36711 ft 447 kts 271°
2026-05-09 02:05 39.02645 -17.74420 36721 ft 446 kts 271°
2026-05-09 02:05 39.02626 -17.82402 36721 ft 446 kts 271°
2026-05-09 02:06 39.02602 -17.90385 36724 ft 446 kts 271°
2026-05-09 02:07 39.02554 -18.02357 36727 ft 446 kts 271°
2026-05-09 02:07 39.02517 -18.10321 36726 ft 445 kts 271°
2026-05-09 02:08 39.02469 -18.18289 36735 ft 445 kts 271°
2026-05-09 02:08 39.02421 -18.26253 36739 ft 445 kts 271°
2026-05-09 02:09 39.02372 -18.34214 36743 ft 445 kts 271°
2026-05-09 02:09 39.02311 -18.42167 36747 ft 445 kts 271°
2026-05-09 02:10 39.02258 -18.48775 36749 ft 444 kts 271°
2026-05-09 02:10 39.02185 -18.56741 36750 ft 444 kts 271°
2026-05-09 02:11 39.02113 -18.64680 36756 ft 444 kts 271°
2026-05-09 02:11 39.02028 -18.72617 36760 ft 444 kts 271°
2026-05-09 02:12 39.01937 -18.80570 36760 ft 443 kts 271°
2026-05-09 02:12 39.01848 -18.88487 36760 ft 443 kts 271°
2026-05-09 02:13 39.01748 -18.96416 36767 ft 443 kts 271°
2026-05-09 02:13 39.01650 -19.04333 36772 ft 443 kts 271°
2026-05-09 02:14 39.01546 -19.12252 36776 ft 442 kts 271°
2026-05-09 02:14 39.01434 -19.20156 36781 ft 442 kts 271°
2026-05-09 02:15 39.01315 -19.28048 36784 ft 442 kts 271°
2026-05-09 02:15 39.01187 -19.35949 36786 ft 441 kts 271°
2026-05-09 02:16 39.01060 -19.43836 36787 ft 441 kts 271°
2026-05-09 02:16 39.00926 -19.51705 36791 ft 440 kts 271°
2026-05-09 02:17 39.00793 -19.59580 36797 ft 440 kts 271°
2026-05-09 02:17 39.00657 -19.67438 36804 ft 439 kts 271°
2026-05-09 02:18 39.00504 -19.75291 36805 ft 439 kts 271°
2026-05-09 02:18 39.00335 -19.83129 36809 ft 439 kts 271°
2026-05-09 02:19 39.00178 -19.90968 36815 ft 438 kts 271°
2026-05-09 02:19 39.00021 -19.98795 36823 ft 438 kts 271°
2026-05-09 02:20 38.99977 -20.06616 36824 ft 437 kts 273°
2026-05-09 02:20 39.00148 -20.14429 36829 ft 436 kts 274°
2026-05-09 02:21 39.00339 -20.22272 36832 ft 436 kts 274°
2026-05-09 02:21 39.00459 -20.30061 36832 ft 435 kts 273°
2026-05-09 02:22 39.00540 -20.37850 36840 ft 435 kts 273°
2026-05-09 02:22 39.00622 -20.45592 36840 ft 434 kts 274°
2026-05-09 02:23 39.00710 -20.53331 36845 ft 434 kts 274°
2026-05-09 02:23 39.00799 -20.61096 36848 ft 433 kts 274°
2026-05-09 02:24 39.00876 -20.68854 36850 ft 433 kts 274°
2026-05-09 02:24 39.00941 -20.76556 36856 ft 433 kts 273°
2026-05-09 02:25 39.01009 -20.84301 36858 ft 432 kts 273°
2026-05-09 02:25 39.01070 -20.91996 36862 ft 431 kts 273°
2026-05-09 02:26 39.01138 -20.99700 36864 ft 431 kts 274°
2026-05-09 02:26 39.01196 -21.07407 36870 ft 430 kts 273°
2026-05-09 02:27 39.01241 -21.15097 36869 ft 430 kts 273°
2026-05-09 02:27 39.01287 -21.22791 36878 ft 430 kts 273°
2026-05-09 02:28 39.01329 -21.30472 36878 ft 430 kts 273°
2026-05-09 02:28 39.01362 -21.38154 36885 ft 429 kts 273°
2026-05-09 02:29 39.01386 -21.45889 36889 ft 429 kts 273°
2026-05-09 02:29 39.01403 -21.53560 36886 ft 429 kts 273°
2026-05-09 02:30 39.01419 -21.61228 36890 ft 429 kts 273°
2026-05-09 02:30 39.01440 -21.68891 36894 ft 429 kts 273°
2026-05-09 02:31 39.01452 -21.76552 36889 ft 428 kts 273°
2026-05-09 02:31 39.01458 -21.84218 36898 ft 428 kts 273°
2026-05-09 02:32 39.01449 -21.91879 36904 ft 428 kts 273°
2026-05-09 02:32 39.01429 -21.99537 36903 ft 428 kts 273°
2026-05-09 02:33 39.01411 -22.07206 36908 ft 428 kts 273°
2026-05-09 02:33 39.01394 -22.14856 36914 ft 428 kts 273°
2026-05-09 02:34 39.01382 -22.22523 36914 ft 428 kts 273°
2026-05-09 02:34 39.01361 -22.30191 36918 ft 429 kts 272°
2026-05-09 02:35 39.01327 -22.37864 36922 ft 429 kts 272°
2026-05-09 02:35 39.01282 -22.45534 36926 ft 429 kts 272°
2026-05-09 02:36 39.01241 -22.53204 36928 ft 429 kts 272°
2026-05-09 02:36 39.01190 -22.60872 36932 ft 429 kts 272°
2026-05-09 02:37 39.01136 -22.68544 36939 ft 429 kts 272°
2026-05-09 02:37 39.01078 -22.76225 36943 ft 429 kts 272°
2026-05-09 02:38 39.01017 -22.83908 36948 ft 429 kts 272°
2026-05-09 02:38 39.00947 -22.91583 36946 ft 429 kts 272°
2026-05-09 02:39 39.00873 -22.99262 36955 ft 429 kts 272°
2026-05-09 02:39 39.00796 -23.06944 36957 ft 429 kts 272°
2026-05-09 02:40 39.00715 -23.14615 36963 ft 429 kts 272°
2026-05-09 02:40 39.00641 -23.20993 36966 ft 429 kts 272°
2026-05-09 02:41 39.00536 -23.29945 36969 ft 429 kts 272°
2026-05-09 02:41 39.00448 -23.36320 36974 ft 428 kts 272°
2026-05-09 02:42 39.00340 -23.44026 36980 ft 428 kts 272°
2026-05-09 02:42 39.00242 -23.51674 36989 ft 428 kts 272°
2026-05-09 02:43 39.00134 -23.59331 36990 ft 427 kts 272°
2026-05-09 02:43 39.00006 -23.66971 36998 ft 427 kts 272°
2026-05-09 02:44 38.99656 -23.74602 37000 ft 428 kts 269°
2026-05-09 02:44 38.99081 -23.82233 37003 ft 428 kts 268°
2026-05-09 02:45 38.98487 -23.89844 37008 ft 428 kts 269°
2026-05-09 02:45 38.97940 -23.97453 37012 ft 427 kts 269°
2026-05-09 02:46 38.97419 -24.05048 37019 ft 426 kts 269°
2026-05-09 02:46 38.96889 -24.12646 37021 ft 426 kts 269°
2026-05-09 02:47 38.96354 -24.20218 37024 ft 426 kts 269°
2026-05-09 02:47 38.95816 -24.27789 37028 ft 425 kts 269°
2026-05-09 02:48 38.95270 -24.35348 37031 ft 425 kts 269°
2026-05-09 02:48 38.94708 -24.42898 37032 ft 424 kts 269°
2026-05-09 02:49 38.94146 -24.50441 37036 ft 424 kts 269°
2026-05-09 02:49 38.93581 -24.58022 37042 ft 423 kts 269°
2026-05-09 02:50 38.93017 -24.65554 37042 ft 423 kts 269°
2026-05-09 02:50 38.92448 -24.73055 37056 ft 422 kts 269°
2026-05-09 02:51 38.91873 -24.80562 37064 ft 422 kts 269°
2026-05-09 02:51 38.91293 -24.88065 37056 ft 422 kts 269°
2026-05-09 02:52 38.90715 -24.95548 37063 ft 421 kts 269°
2026-05-09 02:52 38.90127 -25.03033 37063 ft 421 kts 269°
2026-05-09 02:53 38.89530 -25.10514 37075 ft 421 kts 269°
2026-05-09 02:53 38.88927 -25.17989 37078 ft 420 kts 269°
2026-05-09 02:54 38.88324 -25.25439 37077 ft 420 kts 269°
2026-05-09 02:54 38.87722 -25.32902 37078 ft 420 kts 269°
2026-05-09 02:55 38.87114 -25.40355 37083 ft 419 kts 269°
2026-05-09 02:55 38.86502 -25.47803 37087 ft 419 kts 269°
2026-05-09 02:56 38.85886 -25.55234 37086 ft 419 kts 269°
2026-05-09 02:56 38.85264 -25.62656 37091 ft 418 kts 269°
2026-05-09 02:57 38.84634 -25.70138 37091 ft 418 kts 269°
2026-05-09 02:57 38.84003 -25.77547 37100 ft 418 kts 268°
2026-05-09 02:58 38.83365 -25.84951 37101 ft 418 kts 268°
2026-05-09 02:58 38.82729 -25.92358 37103 ft 417 kts 268°
2026-05-09 02:59 38.82085 -25.99747 37106 ft 417 kts 268°
2026-05-09 02:59 38.81427 -26.07176 37118 ft 416 kts 268°
2026-05-09 03:00 38.80773 -26.14545 37116 ft 416 kts 268°
2026-05-09 03:00 38.80118 -26.21912 37114 ft 416 kts 268°
2026-05-09 03:01 38.79456 -26.29270 37121 ft 415 kts 268°
2026-05-09 03:01 38.78791 -26.36623 37122 ft 415 kts 268°
2026-05-09 03:02 38.78126 -26.43967 37126 ft 414 kts 268°
2026-05-09 03:02 38.77460 -26.51307 37133 ft 414 kts 268°
2026-05-09 03:03 38.76786 -26.58636 37136 ft 415 kts 268°
2026-05-09 03:03 38.76103 -26.65989 37133 ft 414 kts 268°
2026-05-09 03:03 38.75762 -26.69594 36933 ft 404 kts 268°
2026-05-09 03:04 38.75425 -26.73140 35657 ft 399 kts 268°
2026-05-09 03:04 38.75091 -26.76689 34346 ft 393 kts 268°
2026-05-09 03:04 38.74766 -26.80157 33583 ft 387 kts 269°
2026-05-09 03:04 38.74446 -26.83543 33276 ft 380 kts 269°
2026-05-09 03:05 38.74129 -26.86902 32381 ft 381 kts 269°
2026-05-09 03:05 38.73811 -26.90283 31425 ft 383 kts 268°
2026-05-09 03:05 38.73491 -26.93637 30952 ft 375 kts 268°
2026-05-09 03:05 38.73170 -26.96944 30390 ft 370 kts 268°
2026-05-09 03:06 38.72855 -27.00181 29787 ft 365 kts 269°
2026-05-09 03:06 38.72545 -27.03383 29228 ft 359 kts 269°
2026-05-09 03:06 38.72241 -27.06537 28689 ft 354 kts 269°
2026-05-09 03:06 38.71940 -27.09645 28150 ft 349 kts 269°
2026-05-09 03:07 38.71639 -27.12723 27620 ft 347 kts 269°
2026-05-09 03:07 38.71340 -27.15776 27098 ft 345 kts 269°
2026-05-09 03:07 38.71144 -27.17794 26750 ft 344 kts 269°
2026-05-09 03:07 38.70851 -27.20826 26234 ft 343 kts 269°
2026-05-09 03:08 38.70557 -27.23856 25722 ft 343 kts 269°
2026-05-09 03:08 38.70260 -27.26890 25223 ft 343 kts 269°
2026-05-09 03:08 38.69964 -27.29920 24726 ft 342 kts 270°
2026-05-09 03:08 38.69666 -27.32979 24240 ft 341 kts 270°
2026-05-09 03:09 38.69367 -27.35993 23764 ft 340 kts 270°
2026-05-09 03:09 38.69067 -27.38985 23243 ft 338 kts 270°
2026-05-09 03:09 38.68774 -27.41915 22791 ft 334 kts 270°
2026-05-09 03:09 38.68474 -27.44898 22337 ft 332 kts 270°
2026-05-09 03:10 38.68181 -27.47812 21886 ft 330 kts 270°
2026-05-09 03:10 38.67892 -27.50679 21436 ft 328 kts 270°
2026-05-09 03:10 38.67596 -27.53610 20973 ft 326 kts 270°
2026-05-09 03:10 38.67305 -27.56481 20508 ft 325 kts 270°
2026-05-09 03:11 38.67015 -27.59343 20023 ft 323 kts 270°
2026-05-09 03:11 38.66727 -27.62182 19545 ft 321 kts 270°
2026-05-09 03:11 38.66438 -27.65013 19046 ft 320 kts 270°
2026-05-09 03:11 38.66150 -27.67837 18546 ft 319 kts 270°
2026-05-09 03:12 38.65866 -27.70621 18000 ft 318 kts 270°
2026-05-09 03:12 38.65579 -27.73425 17482 ft 316 kts 270°
2026-05-09 03:12 38.65294 -27.76200 16977 ft 314 kts 270°
2026-05-09 03:12 38.65006 -27.78995 16448 ft 312 kts 270°
2026-05-09 03:13 38.64444 -27.84434 15454 ft 309 kts 270°
2026-05-09 03:13 38.64157 -27.87192 14938 ft 308 kts 270°
2026-05-09 03:13 38.63874 -27.89910 14428 ft 308 kts 270°
2026-05-09 03:14 38.63593 -27.92616 13918 ft 307 kts 270°
2026-05-09 03:14 38.63312 -27.95324 13367 ft 306 kts 270°
2026-05-09 03:14 38.63031 -27.98026 12845 ft 306 kts 270°
2026-05-09 03:14 38.62846 -28.00703 12372 ft 298 kts 276°
2026-05-09 03:15 38.62969 -28.03300 11925 ft 288 kts 284°
2026-05-09 03:15 38.63381 -28.05768 11502 ft 281 kts 292°
2026-05-09 03:15 38.64059 -28.08091 11078 ft 276 kts 298°
2026-05-09 03:15 38.64815 -28.10350 10658 ft 278 kts 298°
2026-05-09 03:16 38.65562 -28.12612 10380 ft 271 kts 298°
2026-05-09 03:16 38.66282 -28.14814 10130 ft 266 kts 298°
2026-05-09 03:16 38.66993 -28.16989 9993 ft 265 kts 298°
2026-05-09 03:16 38.67690 -28.19128 9847 ft 253 kts 298°
2026-05-09 03:17 38.68346 -28.21155 9713 ft 240 kts 298°
2026-05-09 03:17 38.68983 -28.23116 9413 ft 238 kts 298°
2026-05-09 03:17 38.69622 -28.25067 9059 ft 238 kts 298°
2026-05-09 03:17 38.70264 -28.27023 8768 ft 237 kts 298°
2026-05-09 03:18 38.70897 -28.28910 8738 ft 222 kts 303°
2026-05-09 03:18 38.71824 -28.30349 8740 ft 201 kts 326°
2026-05-09 03:18 38.73005 -28.31119 8744 ft 183 kts 346°
2026-05-09 03:18 38.74230 -28.31261 8742 ft 176 kts
2026-05-09 03:19 38.75392 -28.30851 8765 ft 168 kts 21°
2026-05-09 03:19 38.76323 -28.30002 8679 ft 163 kts 37°
2026-05-09 03:19 38.76987 -28.28863 8550 ft 155 kts 47°
2026-05-09 03:19 38.77549 -28.27734 8408 ft 145 kts 47°
2026-05-09 03:20 38.78072 -28.26680 8284 ft 136 kts 47°
2026-05-09 03:20 38.78567 -28.25687 8116 ft 130 kts 47°
2026-05-09 03:20 38.79057 -28.24713 7901 ft 129 kts 46°
2026-05-09 03:20 38.79514 -28.23678 7511 ft 144 kts 58°
2026-05-09 03:21 38.79762 -28.22322 6955 ft 170 kts 78°
2026-05-09 03:21 38.79578 -28.20745 6553 ft 184 kts 103°
2026-05-09 03:21 38.78909 -28.19334 6235 ft 189 kts 127°
2026-05-09 03:21 38.77830 -28.18351 5892 ft 194 kts 154°
2026-05-09 03:22 38.76511 -28.18006 5549 ft 195 kts 181°
2026-05-09 03:22 38.75204 -28.18373 5201 ft 191 kts 208°
2026-05-09 03:22 38.74152 -28.19346 4817 ft 187 kts 233°
2026-05-09 03:22 38.73375 -28.20685 4358 ft 187 kts 243°
2026-05-09 03:23 38.72665 -28.22089 4044 ft 187 kts 245°
2026-05-09 03:23 38.71973 -28.23486 3915 ft 187 kts 245°
2026-05-09 03:23 38.71270 -28.24912 3945 ft 190 kts 244°
2026-05-09 03:23 38.70565 -28.26334 3959 ft 189 kts 245°
2026-05-09 03:24 38.69852 -28.27777 4006 ft 200 kts 245°
2026-05-09 03:24 38.69089 -28.29346 4021 ft 212 kts 244°
2026-05-09 03:24 38.68303 -28.30947 4040 ft 213 kts 243°
2026-05-09 03:24 38.67506 -28.32556 4039 ft 213 kts 243°
2026-05-09 03:25 38.66708 -28.34161 4042 ft 214 kts 244°
2026-05-09 03:25 38.65911 -28.35769 4042 ft 214 kts 244°
2026-05-09 03:25 38.65119 -28.37375 4042 ft 213 kts 244°
2026-05-09 03:25 38.64332 -28.38982 4039 ft 213 kts 244°
2026-05-09 03:26 38.63545 -28.40593 4026 ft 214 kts 244°
2026-05-09 03:26 38.62731 -28.42267 4031 ft 228 kts 244°
2026-05-09 03:26 38.61884 -28.44008 3980 ft 232 kts 244°
2026-05-09 03:26 38.60977 -28.45722 3907 ft 233 kts 239°
2026-05-09 03:27 38.59989 -28.47404 3814 ft 234 kts 238°
2026-05-09 03:27 38.58958 -28.48975 3711 ft 234 kts 233°
2026-05-09 03:27 38.57857 -28.50510 3610 ft 235 kts 232°
2026-05-09 03:27 38.56740 -28.52038 3479 ft 235 kts 231°
2026-05-09 03:28 38.55738 -28.53653 3288 ft 230 kts 243°
2026-05-09 03:28 38.54891 -28.55333 3095 ft 209 kts 243°
2026-05-09 03:28 38.54137 -28.56746 2872 ft 185 kts 242°
2026-05-09 03:28 38.53428 -28.58068 2595 ft 171 kts 244°
2026-05-09 03:29 38.52864 -28.59339 2324 ft 160 kts 250°
2026-05-09 03:29 38.52375 -28.60608 1962 ft 158 kts 256°
2026-05-09 03:29 38.52058 -28.61930 1578 ft 156 kts 269°
2026-05-09 03:29 38.51925 -28.63273 1352 ft 149 kts 275°
2026-05-09 03:30 38.51907 -28.64565 1045 ft 143 kts 282°
2026-05-09 03:30 38.51960 -28.65791 816 ft 135 kts 282°
2026-05-09 03:30 38.51987 -28.66990 649 ft 135 kts 278°
2026-05-09 03:30 38.51976 -28.68191 549 ft 135 kts 277°
2026-05-09 03:31 38.51965 -28.69379 415 ft 133 kts 281°
2026-05-09 03:31 38.51985 -28.70557 212 ft 134 kts 281°
2026-05-09 03:31 38.51997 -28.71698 110 ft 109 kts 270°
2026-05-09 03:31 38.51990 -28.72286 93 ft 30 kts 261°
2026-05-09 03:32 38.51974 -28.72430 90 ft 8 kts 348°
2026-05-09 03:32 38.51993 -28.72360 91 ft 11 kts 90°
2026-05-09 03:32 38.51991 -28.72249 94 ft 14 kts 92°
2026-05-09 03:32 38.51987 -28.72104 102 ft 19 kts 91°
2026-05-09 03:33 38.51989 -28.71915 104 ft 24 kts 88°
2026-05-09 03:33 38.51992 -28.71687 111 ft 25 kts 89°
2026-05-09 03:33 38.52007 -28.71501 114 ft 14 kts 49°
2026-05-09 03:33 38.52101 -28.71492 111 ft 11 kts 343°
2026-05-09 03:34 38.52099 -28.71557 109 ft 8 kts 182°
2026-05-09 03:34 38.52087 -28.71557 111 ft 0 kts 180°